Weather History for Kenai, AK

Change the Weather History Date:

Thursday, October 25, 2012

  Actual Average Record
Temperature  
Mean Temperature 26 °F -  
Max Temperature 35 °F 37 °F 49 °F (1951)
Min Temperature 16 °F 20 °F -9 °F (1966)
Degree Days  
Heating Degree Days 40    
Moisture  
Dew Point 14 °F    
Average Humidity 67    
Maximum Humidity 88    
Minimum Humidity 42    
Precipitation  
Precipitation 0.00 in - - ()
Sea Level Pressure  
Sea Level Pressure 30.50 in    
Wind  
Wind Speed 5 mph (NE)    
Max Wind Speed 10 mph    
Max Gust Speed 17 mph    
Visibility 10 miles    
Events      
Averages and records for this station are not official NWS values.
T = Trace of Precipitation, MM = Missing Value Source: NWS Daily Summary

Daily Weather History Graph

Daily Weather History Graph

Search for Another Location

Airport:

Trip Planner

Search our weather history database for the weather conditions in past years. The results will help you decide how hot, cold, wet, or windy it might be!

Date:

Astronomy

Oct. 25, 2012 Rise Set
Actual Time 9:13 AM AKDT 6:23 PM AKDT
Civil Twilight 8:28 AM AKDT 7:08 PM AKDT
Nautical Twilight 7:38 AM AKDT 7:57 PM AKDT
Astronomical Twilight 6:49 AM AKDT 8:46 PM AKDT
Moon 4:59 PM AKDT 4:26 AM AKDT
Length of Visible Light 10h 39m
Length of Day
9h 10m
Waxing Gibbous, 85% of the Moon is Illuminated
Oct 25
Waxing Gibbous
Oct 29
Full
Nov 6
Last Quarter
Nov 13
New
Nov 20
First Quarter

Hourly Weather History & Observations

Time (AKDT) Temp. Windchill Dew Point Humidity Pressure Visibility Wind Dir Wind Speed Gust Speed Precip Events Conditions
12:53 AM 23.0 °F 13.9 °F 12.9 °F 65% 30.45 in 10.0 mi NE 8.1 mph - N/A   Clear
1:53 AM 19.9 °F - 12.0 °F 71% 30.46 in 10.0 mi Calm Calm - N/A   Clear
2:53 AM 21.0 °F 13.4 °F 12.9 °F 71% 30.48 in 10.0 mi NE 5.8 mph - N/A   Clear
3:53 AM 19.9 °F 12.1 °F 12.0 °F 71% 30.49 in 10.0 mi ENE 5.8 mph - N/A   Clear
4:53 AM 19.0 °F 11.1 °F 12.0 °F 74% 30.48 in 10.0 mi NE 5.8 mph - N/A   Clear
5:53 AM 17.6 °F 9.3 °F 12.2 °F 79% 30.47 in 10.0 mi East 5.8 mph - N/A   Clear
6:53 AM 16.0 °F 10.4 °F 12.9 °F 88% 30.49 in 10.0 mi NNE 3.5 mph - N/A   Clear
7:53 AM 19.0 °F 12.3 °F 12.9 °F 77% 30.51 in 10.0 mi NNE 4.6 mph - N/A   Clear
8:53 AM 18.0 °F 12.7 °F 12.9 °F 81% 30.52 in 10.0 mi North 3.5 mph - N/A   Clear
9:53 AM 19.0 °F 13.9 °F 10.9 °F 71% 30.51 in 10.0 mi ENE 3.5 mph - N/A   Clear
10:53 AM 21.9 °F 15.7 °F 15.1 °F 75% 30.52 in 10.0 mi NNE 4.6 mph - N/A   Clear
11:53 AM 28.0 °F 22.8 °F 18.0 °F 66% 30.53 in 10.0 mi NE 4.6 mph - N/A   Clear
12:53 PM 32.0 °F 24.2 °F 18.0 °F 56% 30.54 in 10.0 mi NE 9.2 mph 17.3 mph N/A   Clear
1:53 PM 33.1 °F 24.9 °F 16.0 °F 50% 30.53 in 10.0 mi NE 10.4 mph - N/A   Clear
2:53 PM 34.0 °F 26.6 °F 17.1 °F 50% 30.53 in 10.0 mi NE 9.2 mph - N/A   Clear
3:53 PM 35.1 °F 30.1 °F 14.0 °F 42% 30.51 in 10.0 mi NE 5.8 mph - N/A   Clear
4:53 PM 34.0 °F 28.8 °F 16.0 °F 48% 30.50 in 10.0 mi NE 5.8 mph - N/A   Clear
5:53 PM 33.1 °F 28.7 °F 16.0 °F 50% 30.50 in 10.0 mi North 4.6 mph - N/A   Clear
6:53 PM 27.0 °F 21.6 °F 15.1 °F 61% 30.50 in 10.0 mi North 4.6 mph - N/A   Clear
7:53 PM 25.0 °F 20.7 °F 14.0 °F 63% 30.50 in 10.0 mi NNW 3.5 mph - N/A   Clear
8:53 PM 24.1 °F 19.7 °F 14.0 °F 65% 30.50 in 10.0 mi NE 3.5 mph - N/A   Clear
9:53 PM 21.9 °F - 12.9 °F 68% 30.50 in 10.0 mi Calm Calm - N/A   Clear
10:53 PM 19.0 °F - 15.1 °F 85% 30.49 in 10.0 mi Calm Calm - N/A   Clear
11:53 PM 17.1 °F - 10.9 °F 77% 30.50 in 10.0 mi Calm Calm - N/A   Clear